New Orleans Weather Page

Compiled by Joey Kelly

 

Want a detailed forecast?
Or want to check out the National Hurricane Center?
Or the National Weather Service's Southeast Louisiana page?

 

NOAA Weather: Moisant International Airport

Data is taken from the Aviation Weather Service at NOAA.

This is the current weather at New Orleans International Airport
in New Orleans, Louisiana, United States:

Temp:60.8 F
Wind:6.9 MPH
Wind direction:East at 080°
Dewpoint:53.6 F
Pressure:30.16 inches of Mercury
Visibility:10 Statute Miles
Sky:Few at 7000ft Few at 25000ft
Weather:

The raw METAR data is
KMSY 241353Z 08006KT 10SM FEW070 FEW250 16/12 A3016 RMK AO2 SLP216 T01610117


 

Southeast Louisiana Radar
Southeast Louisiana Radar

 

Gulf and Caribbean Radar
Gulf and Caribbean Radar

 

USA Radar
USA Radar

 

7-Day Forecast (WWL)
7-Day Forecast (WWL)

 

Southeast Louisiana Temperatures
Southeast Louisiana Temperatures

 

Southeastern U.S. Temperatures
Southeastern U.S. Temperatures

 

Infrared Tropical Satellite
Infrared Tropical Satellite

 

Atlantic Infrared Tropical Satellite
Atlantic Infrared Tropical Satellite

 

NHC 2-Day Weather Outlook
NHC 2-Day Weather Outlook

 

NHC Atlantic Tropical Cyclone Avtivity
NHC Atlantic Tropical Cyclone Avtivity

 

America and Atlantic Wind Patterns (interactive widget)

 


Other Weather Links:

National Hurricane Center
Louisiana Hurricane Season Notes